Los Alamos, NM

11:42 AM MDT on August 31, 2016 (GMT -0600)
Los Alamos

Weather History for KLAM - February, 2013

Change the Weather History Date:

Monday, February 25, 2013

  Actual Average Record
Temperature  
Mean Temperature 30 °F -  
Max Temperature 40 °F 46 °F 69 °F (1986)
Min Temperature 19 °F 23 °F 0 °F (1960)
Degree Days  
Heating Degree Days 36    
Moisture  
Dew Point 7 °F    
Average Humidity 40    
Maximum Humidity 60    
Minimum Humidity 23    
Precipitation  
Precipitation 0.00 in - - ()
Sea Level Pressure  
Sea Level Pressure 29.93 in    
Wind  
Wind Speed 11 mph (NE)    
Max Wind Speed 23 mph    
Max Gust Speed 36 mph    
Visibility 10 miles    
Events      
Averages and records for this station are not official NWS values.
T = Trace of Precipitation, MM = Missing Value Source: NWS Daily Summary

Daily Weather History Graph

Daily Weather History Graph

Search for Another Location

Airport or City:

Trip Planner

Search our weather history database for the weather conditions in past years. The results will help you decide how hot, cold, wet, or windy it might be!

Date:

Astronomy

Feb. 25, 2013 Rise Set
Actual Time 6:39 AM MST 5:56 PM MST
Civil Twilight 6:14 AM MST 6:22 PM MST
Nautical Twilight 5:44 AM MST 6:52 PM MST
Astronomical Twilight 5:14 AM MST 7:21 PM MST
Moon 6:10 PM MST (2/25) 6:12 AM MST (2/25)
Length of Visible Light 12h 08m
Length of Day
11h 16m
Full, 100% of the Moon is Illuminated
Feb 25
Full
Feb 25
Full
Mar 4
Last Quarter
Mar 11
New
Mar 19
First Quarter

Hourly Weather History & Observations

Time (MST) Temp. Windchill Dew Point Humidity Pressure Visibility Wind Dir Wind Speed Gust Speed Precip Events Conditions
12:15 AM 26.6 °F 13.1 °F 9.9 °F 49% 29.81 in 10.0 mi North 19.6 mph 31.1 mph N/A   Clear
12:35 AM 26.6 °F 12.7 °F 10.9 °F 52% 29.82 in 10.0 mi NNW 20.7 mph 29.9 mph N/A   Clear
12:55 AM 26.4 °F 11.8 °F 10.4 °F 51% 29.82 in 10.0 mi NNW 23.0 mph 35.7 mph N/A   Clear
1:15 AM 26.4 °F 11.8 °F 8.6 °F 47% 29.83 in 10.0 mi North 23.0 mph 34.5 mph N/A   Clear
1:35 AM 26.1 °F 11.6 °F 9.5 °F 50% 29.84 in 10.0 mi NNW 21.9 mph 31.1 mph N/A   Clear
1:55 AM 26.4 °F 12.8 °F 7.9 °F 46% 29.85 in 10.0 mi North 19.6 mph 33.4 mph N/A   Clear
2:15 AM 26.2 °F 11.9 °F 7.5 °F 45% 29.85 in 10.0 mi North 21.9 mph 35.7 mph N/A   Clear
2:35 AM 26.1 °F 12.7 °F 6.6 °F 44% 29.86 in 10.0 mi North 18.4 mph 29.9 mph N/A   Clear
2:55 AM 25.7 °F 13.1 °F 6.4 °F 44% 29.87 in 10.0 mi North 16.1 mph 29.9 mph N/A   Clear
3:15 AM 26.1 °F 14.5 °F 5.5 °F 42% 29.88 in 10.0 mi North 13.8 mph 21.9 mph N/A   Clear
3:35 AM 26.4 °F 13.2 °F 5.0 °F 40% 29.88 in 10.0 mi North 18.4 mph 29.9 mph N/A   Clear
3:55 AM 25.7 °F 13.5 °F 5.9 °F 43% 29.88 in 10.0 mi North 15.0 mph 26.5 mph N/A   Clear
4:15 AM 25.3 °F 11.0 °F 6.3 °F 44% 29.89 in 10.0 mi North 20.7 mph 25.3 mph N/A   Clear
4:35 AM 25.2 °F 13.3 °F 6.3 °F 45% 29.90 in 10.0 mi North 13.8 mph 24.2 mph N/A   Clear
4:55 AM 24.8 °F 16.1 °F 6.1 °F 45% 29.91 in 10.0 mi North 8.1 mph 19.6 mph N/A   Clear
5:15 AM 23.7 °F 13.3 °F 6.6 °F 48% 29.92 in 10.0 mi NE 10.4 mph 16.1 mph N/A   Clear
5:35 AM 22.8 °F 10.9 °F 7.3 °F 52% 29.92 in 10.0 mi NE 12.7 mph 18.4 mph N/A   Clear
5:55 AM 22.3 °F 11.5 °F 7.7 °F 54% 29.92 in 10.0 mi NE 10.4 mph 19.6 mph N/A   Clear
6:15 AM 21.2 °F 10.1 °F 7.7 °F 56% 29.93 in 10.0 mi NE 10.4 mph - N/A   Clear
6:35 AM 20.3 °F 9.8 °F 7.7 °F 58% 29.94 in 10.0 mi NE 9.2 mph - N/A   Clear
6:55 AM 19.4 °F - 7.7 °F 60% 29.95 in 10.0 mi Calm Calm - N/A   Clear
7:15 AM 19.9 °F - 8.1 °F 60% 29.96 in 10.0 mi Calm Calm - N/A   Clear
7:35 AM 20.7 °F 13.0 °F 8.6 °F 60% 29.97 in 10.0 mi ENE 5.8 mph - N/A   Clear
7:55 AM 21.2 °F 13.6 °F 9.3 °F 60% 29.98 in 10.0 mi NE 5.8 mph - N/A   Clear
8:15 AM 22.5 °F 16.3 °F 9.1 °F 57% 29.98 in 10.0 mi NE 4.6 mph - N/A   Clear
8:35 AM 23.7 °F 15.6 °F 9.7 °F 55% 29.99 in 10.0 mi NNE 6.9 mph - N/A   Clear
8:55 AM 24.3 °F 18.4 °F 9.5 °F 53% 30.00 in 10.0 mi NE 4.6 mph - N/A   Clear
9:15 AM 24.6 °F - 9.9 °F 54% 30.00 in 10.0 mi Calm Calm - N/A   Clear
9:35 AM 25.7 °F 17.1 °F 10.2 °F 52% 30.01 in 10.0 mi ENE 8.1 mph - N/A   Clear
9:55 AM 26.8 °F 21.4 °F 10.6 °F 51% 30.01 in 10.0 mi ENE 4.6 mph - N/A   Clear
10:15 AM 27.5 °F - 11.1 °F 50% 30.01 in 10.0 mi Calm Calm - N/A   Clear
10:35 AM 28.0 °F 21.7 °F 11.3 °F 50% 30.01 in 10.0 mi NNE 5.8 mph - N/A   Clear
10:55 AM 28.9 °F 22.8 °F 11.7 °F 49% 30.02 in 10.0 mi NE 5.8 mph - N/A   Clear
11:15 AM 29.8 °F - 11.3 °F 46% 30.01 in 10.0 mi Calm Calm - N/A   Clear
11:35 AM 31.3 °F 24.7 °F 11.7 °F 44% 30.01 in 10.0 mi NE 6.9 mph - N/A   Clear
11:55 AM 32.0 °F 28.7 °F 11.3 °F 42% 30.00 in 10.0 mi NE 3.5 mph - N/A   Clear
12:15 PM 32.9 °F 27.5 °F 11.1 °F 40% 29.99 in 10.0 mi NE 5.8 mph - N/A   Clear
12:35 PM 33.8 °F 28.6 °F 11.3 °F 39% 29.98 in 10.0 mi NE 5.8 mph - N/A   Clear
12:55 PM 34.9 °F 29.9 °F 9.5 °F 35% 29.97 in 10.0 mi NE 5.8 mph - N/A   Clear
1:15 PM 36.0 °F 31.1 °F 9.5 °F 33% 29.96 in 10.0 mi NE 5.8 mph - N/A   Clear
1:35 PM 36.1 °F - 8.1 °F 31% 29.95 in 10.0 mi Calm Calm - N/A   Clear
1:55 PM 37.0 °F - 8.2 °F 30% 29.94 in 10.0 mi Calm Calm - N/A   Clear
2:15 PM 37.8 °F 33.3 °F 8.4 °F 30% 29.94 in 10.0 mi NNE 5.8 mph - N/A   Clear
2:35 PM 38.3 °F 34.8 °F 9.0 °F 30% 29.93 in 10.0 mi ENE 4.6 mph - N/A   Clear
2:55 PM 38.5 °F 36.1 °F 8.4 °F 29% 29.93 in 10.0 mi NE 3.5 mph - N/A   Clear
3:15 PM 39.2 °F - 7.7 °F 27% 29.92 in 10.0 mi Calm Calm - N/A   Clear
3:35 PM 39.2 °F 35.9 °F 7.5 °F 27% 29.92 in 10.0 mi NE 4.6 mph - N/A   Clear
3:55 PM 39.4 °F 36.1 °F 7.2 °F 26% 29.91 in 10.0 mi ENE 4.6 mph - N/A   Clear
4:15 PM 40.3 °F 38.2 °F 5.5 °F 24% 29.91 in 10.0 mi East 3.5 mph - N/A   Clear
4:35 PM 40.3 °F 37.1 °F 4.6 °F 23% 29.91 in 10.0 mi SSE 4.6 mph - N/A   Clear
4:55 PM 39.6 °F 35.4 °F 3.9 °F 23% 29.91 in 10.0 mi ESE 5.8 mph - N/A   Clear
5:15 PM 40.1 °F 36.1 °F 4.3 °F 23% 29.91 in 10.0 mi SE 5.8 mph - N/A   Clear
5:35 PM 39.2 °F 35.9 °F 4.1 °F 23% 29.91 in 10.0 mi SE 4.6 mph - N/A   Clear
5:55 PM 38.7 °F 35.2 °F 4.3 °F 24% 29.92 in 10.0 mi SSE 4.6 mph - N/A   Clear
6:15 PM 37.9 °F 34.4 °F 4.1 °F 24% 29.92 in 10.0 mi SSE 4.6 mph - N/A   Clear
6:35 PM 36.5 °F 31.8 °F 5.4 °F 27% 29.92 in 10.0 mi SSW 5.8 mph - N/A   Clear
6:55 PM 35.8 °F 31.9 °F 5.9 °F 29% 29.93 in 10.0 mi SW 4.6 mph - N/A   Clear
7:15 PM 36.3 °F 30.1 °F 4.5 °F 26% 29.94 in 10.0 mi WSW 8.1 mph - N/A   Clear
7:35 PM 35.6 °F 29.2 °F 5.0 °F 28% 29.93 in 10.0 mi WSW 8.1 mph - N/A   Clear
7:55 PM 35.2 °F 28.8 °F 5.9 °F 29% 29.93 in 10.0 mi West 8.1 mph - N/A   Clear
8:15 PM 34.0 °F 28.0 °F 5.9 °F 31% 29.92 in 10.0 mi West 6.9 mph - N/A   Clear
8:35 PM 34.5 °F 30.4 °F 4.1 °F 28% 29.93 in 10.0 mi SSW 4.6 mph - N/A   Clear
8:55 PM 33.4 °F 27.3 °F 3.0 °F 28% 29.94 in 10.0 mi SSW 6.9 mph - N/A   Clear
9:15 PM 35.1 °F - 0.1 °F 23% 29.94 in 10.0 mi Calm Calm - N/A   Clear
9:35 PM 32.7 °F - 3.2 °F 29% 29.94 in 10.0 mi Calm Calm - N/A   Clear
9:55 PM 31.8 °F - 4.1 °F 31% 29.93 in 10.0 mi Calm Calm - N/A   Clear
10:15 PM 31.8 °F 27.3 °F 4.3 °F 31% 29.93 in 10.0 mi East 4.6 mph - N/A   Clear
10:35 PM 31.8 °F 28.5 °F 5.9 °F 34% 29.92 in 10.0 mi ENE 3.5 mph - N/A   Clear
10:55 PM 31.1 °F - 6.6 °F 36% 29.92 in 10.0 mi Calm Calm - N/A   Clear
11:15 PM 30.7 °F 26.0 °F 8.1 °F 39% 29.92 in 10.0 mi SE 4.6 mph - N/A   Clear
11:35 PM 30.9 °F 26.2 °F 8.6 °F 39% 29.91 in - ESE 4.6 mph - N/A   Clear
11:55 PM 30.6 °F 27.1 °F 9.1 °F 41% 29.91 in - East 3.5 mph - N/A   Clear